Theta_e
327 324 323 321 308 307 303 305 311 310 310 316 319 315 314 317 312 310 336 338 339 340 339 339 345 346 343 342 343 345 346 346 346 345 345 343 342 342 344 345 345 345 341 339 339 339 338 338 338
321 321 323 315 303 299 302 309 307 311 315 318 318 316 314 315 324 328 332 338 339 338 337 337 343 346 343 342 343 345 344 343 342 342 342 341 342 343 342 344 345 344 341 338 337 338 337 337 337
317 318 317 310 302 300 302 307 311 313 317 317 315 319 316 319 327 330 337 339 339 338 337 340 343 345 343 342 342 342 344 343 343 340 339 340 342 341 340 341 343 342 339 337 337 337 336 335 335
317 316 316 307 299 303 305 308 314 314 314 317 317 313 321 329 329 334 338 339 338 338 336 341 344 344 343 342 342 341 341 341 341 339 341 339 339 339 339 341 340 339 338 337 335 335 335 334 334
321 316 306 305 302 304 307 308 314 312 312 314 317 313 318 329 335 337 337 338 336 338 336 340 342 343 343 342 342 341 341 341 341 339 340 338 339 340 337 338 338 338 335 335 334 334 333 332 332
315 315 307 303 305 303 306 308 313 312 313 315 313 314 320 333 334 336 337 337 337 337 337 338 336 339 341 341 342 341 341 340 340 341 341 339 339 338 337 336 335 336 335 333 333 332 331 331 329
312 311 308 309 307 303 305 310 312 312 312 313 317 311 323 329 335 336 337 337 336 338 337 336 338 336 336 337 337 340 341 340 339 341 339 337 336 336 335 335 334 333 334 333 332 331 329 328 327
314 312 308 309 307 306 308 310 314 313 311 318 320 310 315 328 333 335 336 336 335 337 337 336 336 336 335 336 333 335 336 335 335 334 332 331 331 331 331 331 333 333 332 331 330 329 328 326 325
313 309 306 308 308 309 309 308 311 314 313 316 319 316 324 333 332 332 333 333 333 334 337 336 336 336 334 334 332 331 330 330 330 330 328 328 332 331 331 328 331 330 330 329 327 326 324 324 324
309 309 310 312 311 309 309 309 309 309 311 313 316 322 328 331 329 327 327 328 329 331 333 334 336 336 336 331 334 335 335 332 331 331 332 332 333 332 330 326 326 327 327 327 326 323 323 324 325
310 307 313 307 306 306 307 308 310 309 308 312 313 318 327 327 327 326 326 330 329 330 333 333 334 337 336 334 333 333 333 333 331 331 331 332 331 331 331 329 328 328 323 326 327 326 326 326 325
301 309 309 308 306 304 303 308 306 309 311 313 316 321 326 325 326 327 327 329 330 329 331 332 333 334 334 335 335 334 331 331 330 330 331 331 331 331 330 328 329 329 328 327 327 326 326 325 324
307 310 307 306 304 304 305 303 305 307 312 311 314 322 324 326 327 329 330 331 331 329 330 332 335 334 333 334 335 335 333 330 330 330 330 330 330 329 329 328 327 327 327 327 326 326 325 325 324
308 309 304 304 303 304 302 304 302 306 311 310 313 319 322 324 326 328 329 328 329 331 330 331 332 335 333 334 332 334 334 333 330 329 329 329 330 329 328 328 327 326 326 325 326 325 324 324 324
309 303 302 301 302 302 304 300 299 307 308 309 311 317 320 323 325 327 329 328 329 332 332 331 331 333 334 333 334 334 333 333 332 331 330 329 329 329 329 328 327 327 326 325 324 324 324 323 323
304 304 298 307 302 301 301 301 306 308 307 307 311 313 318 321 324 327 328 329 331 330 331 331 331 332 333 332 333 333 333 333 333 332 331 329 329 330 330 329 329 329 327 326 325 324 323 323 323
304 298 300 304 305 304 300 303 307 308 306 307 310 312 316 319 322 325 328 329 330 331 332 332 333 332 333 333 332 333 333 333 332 333 332 330 329 330 330 330 330 330 328 326 326 325 324 323 324
296 299 301 302 299 302 299 300 308 304 304 305 308 311 314 316 320 324 326 328 330 332 333 334 336 334 334 334 333 333 332 333 334 333 332 332 330 330 329 328 328 327 324 323 324 324 326 322 321
305 303 301 303 302 299 298 300 302 305 302 304 306 308 311 313 318 323 326 328 329 331 332 333 333 334 334 333 330 328 328 330 331 332 333 332 331 329 329 329 327 325 322 323 322 323 322 323 318
305 302 302 303 303 298 302 301 303 303 303 304 305 306 308 312 315 319 323 326 328 329 331 331 331 333 334 334 333 331 328 331 333 335 334 333 332 331 329 327 326 325 322 322 321 319 318 320 319
302 300 302 301 296 296 295 295 298 302 303 304 305 306 307 308 312 316 320 323 327 328 330 331 332 333 334 335 334 333 333 333 331 332 332 332 332 331 329 328 325 324 325 322 321 319 318 317 317
297 303 301 294 294 292 297 292 302 302 300 301 303 304 305 306 309 313 318 321 324 327 331 331 332 333 334 335 333 330 329 327 330 332 332 333 332 332 331 329 327 325 325 323 323 321 320 319 319
298 297 295 294 292 292 291 289 296 302 298 300 302 305 306 307 308 308 312 317 321 326 328 331 331 332 334 335 334 333 329 331 333 332 332 332 333 332 332 331 330 328 328 326 327 321 322 322 320
295 293 293 293 292 285 290 289 291 296 296 300 302 304 306 308 309 310 309 311 314 322 328 330 330 330 332 333 334 333 332 331 331 331 330 331 331 331 332 331 331 331 330 329 326 326 324 322 320
294 291 285 283 284 283 288 289 292 298 300 301 301 304 306 308 309 310 309 306 309 312 318 325 328 328 330 331 331 332 332 332 331 331 330 330 330 330 330 331 329 327 326 324 323 323 323 322 318
291 292 287 280 281 285 284 283 291 298 301 302 302 302 302 301 304 304 306 308 307 307 309 313 318 323 326 329 329 331 331 331 331 331 330 330 330 330 332 330 330 326 323 322 321 321 320 316 314
291 289 294 285 281 284 287 290 295 298 298 298 298 299 300 301 302 302 303 304 304 307 308 309 311 315 319 324 327 328 329 329 328 329 330 329 330 330 330 328 326 324 321 321 321 316 312 311 310
293 295 286 287 281 279 285 285 288 294 295 297 297 298 300 302 302 303 302 304 305 307 308 310 311 312 317 319 322 322 324 325 325 325 325 326 325 322 322 321 323 320 317 315 313 309 307 306 305
289 288 290 290 288 284 281 286 294 293 294 294 296 297 298 300 301 302 303 305 306 308 310 311 312 313 313 314 314 315 318 321 323 323 324 323 320 319 319 317 317 314 311 310 308 306 305 303 301
293 291 290 285 283 285 283 286 293 294 294 294 296 297 297 299 300 302 303 305 306 308 309 310 311 311 312 313 313 313 313 311 311 318 319 318 316 317 317 314 311 310 307 307 306 304 304 302 299
Wind_Speed
14 10 5 6 6 5 4 6 4 7 7 5 8 0 5 9 8 6 12 9 13 14 11 10 8 13 12 11 11 10 13 15 16 17 16 16 15 15 17 16 15 17 18 18 18 19 19 18 18
11 10 5 3 7 7 6 7 8 9 9 7 7 4 3 7 7 11 11 14 13 13 11 12 8 12 12 10 10 10 13 14 14 14 15 14 15 15 16 17 14 17 18 17 17 18 18 18 18
7 8 4 4 6 6 3 7 9 8 9 9 5 3 2 6 6 14 14 16 14 12 12 11 9 14 13 11 11 11 12 12 13 14 13 14 14 15 15 15 16 16 17 16 17 17 17 17 16
3 3 4 7 5 2 6 6 10 10 4 2 1 5 5 4 11 8 16 15 14 13 13 11 10 13 12 11 11 11 11 11 12 12 11 12 14 17 16 14 16 16 16 16 16 16 16 16 15
5 3 2 4 6 2 1 3 7 10 9 9 6 6 4 5 9 15 15 13 13 13 13 12 9 12 11 11 11 11 11 11 11 12 13 13 12 14 14 15 16 15 15 15 15 16 16 15 15
5 4 7 10 10 4 3 2 9 9 7 7 5 6 6 10 11 13 14 13 13 13 12 13 9 9 9 8 9 10 10 11 10 12 12 13 12 14 15 15 15 14 14 14 14 14 14 14 14
8 7 12 7 6 7 5 7 11 10 9 8 1 7 6 10 13 12 13 13 13 13 12 12 12 10 7 8 8 9 11 12 11 11 14 14 11 14 13 13 13 12 13 13 13 13 13 13 13
6 5 9 8 8 6 8 9 8 11 9 5 4 5 6 15 14 11 12 13 12 12 12 12 12 11 10 9 7 9 11 12 11 12 12 13 12 12 9 12 11 12 12 12 11 11 11 11 11
2 8 10 12 9 4 6 9 5 2 5 8 7 2 5 20 15 12 11 13 11 11 11 11 12 11 10 10 8 8 9 9 10 9 9 11 8 7 9 11 10 11 11 10 9 8 5 6 8
6 10 13 2 6 2 7 8 10 7 10 10 9 5 11 18 17 16 14 13 15 13 11 9 11 10 10 8 10 9 8 7 6 7 6 4 8 7 8 7 8 8 7 7 7 4 2 5 3
6 11 7 5 4 1 2 7 5 12 13 12 13 13 16 16 17 17 16 15 14 14 11 10 7 11 9 8 7 5 5 4 5 6 5 5 6 7 6 5 5 5 5 3 4 3 4 4 3
5 10 7 5 5 5 4 2 7 13 8 1 8 17 18 19 19 19 18 17 16 16 15 13 10 6 8 6 5 7 5 5 5 6 6 5 4 5 5 3 4 3 1 3 1 2 2 3 3
15 13 10 5 6 6 3 8 9 12 14 2 5 17 18 18 18 17 17 15 14 15 16 16 15 11 8 8 7 6 6 6 6 6 7 6 5 5 5 4 3 3 3 3 3 1 1 1 1
14 9 11 8 8 5 6 8 4 8 12 10 10 16 16 18 19 17 17 16 16 16 15 16 15 14 11 11 8 6 6 7 6 6 6 6 5 4 4 4 4 3 3 2 2 1 1 1 1
5 11 8 9 8 5 7 12 12 11 7 14 13 14 14 15 17 18 18 17 17 14 14 15 15 14 14 13 11 9 6 6 7 6 8 9 6 6 6 5 4 4 3 3 3 3 3 3 3
11 8 10 13 11 5 8 19 17 15 12 15 16 14 14 15 17 17 16 17 17 15 14 13 12 14 14 13 10 8 8 7 7 7 7 10 10 8 7 5 5 4 4 4 3 3 3 3 3
15 11 17 10 15 9 12 15 18 8 14 15 15 15 14 14 15 14 16 17 17 18 16 16 16 16 15 14 10 9 9 8 8 8 8 11 10 10 7 5 4 6 4 3 3 3 4 3 3
13 16 16 17 13 16 13 18 15 8 13 15 14 14 15 15 19 17 17 16 17 18 17 17 15 16 15 10 9 7 7 7 7 7 8 10 9 10 8 6 6 4 4 4 2 4 3 1 3
17 17 14 14 10 11 19 18 20 14 12 13 13 14 15 16 14 16 17 17 18 18 18 18 17 17 12 10 9 9 9 8 8 8 12 12 10 11 10 7 7 7 6 6 5 3 5 3 2
18 17 14 3 7 8 14 19 18 19 15 13 16 16 15 15 15 17 19 18 18 20 19 19 19 18 15 10 10 8 9 10 9 8 10 11 12 11 9 8 8 8 5 6 6 5 2 2 3
16 16 15 12 9 10 6 17 19 20 19 15 15 13 17 16 17 17 17 20 19 19 19 18 18 17 16 15 10 9 8 8 8 9 8 10 11 11 10 10 8 9 8 7 8 7 7 4 3
16 12 8 9 9 8 8 8 12 24 21 19 20 18 17 16 13 15 17 18 19 18 16 17 16 17 15 17 13 15 11 9 9 9 8 9 12 12 11 10 9 8 6 7 7 6 6 4 4
6 12 10 7 8 8 9 7 5 9 15 23 21 20 20 20 18 17 16 19 17 15 16 15 16 16 15 15 15 12 14 10 9 9 11 11 10 12 10 10 10 9 7 8 8 6 8 6 5
15 13 9 5 5 8 14 12 8 13 16 16 19 23 21 20 18 16 15 12 13 12 13 14 16 16 16 15 17 17 16 14 10 10 8 7 8 7 10 10 10 9 8 7 6 7 8 7 6
15 17 6 6 8 7 2 10 15 6 10 14 14 17 19 18 17 15 14 11 11 13 14 14 16 16 16 16 16 17 16 15 14 11 9 9 8 8 9 10 8 7 6 6 5 5 6 7 6
18 18 6 8 6 6 1 9 6 11 14 14 9 8 6 3 6 7 9 10 12 13 14 15 15 15 15 15 15 14 14 9 9 10 8 8 8 8 9 9 9 8 7 5 6 4 4 5 4
18 18 0 5 2 2 8 9 8 17 10 8 9 9 12 12 9 9 7 7 8 9 11 12 12 11 12 13 11 12 11 13 10 11 11 8 8 5 6 5 7 8 8 8 8 5 5 4 4
13 13 9 6 7 6 3 4 9 2 5 4 5 9 10 10 11 9 7 5 4 6 8 9 10 11 10 11 11 10 11 11 8 6 7 6 3 5 5 6 8 8 6 7 6 5 5 6 4
9 13 7 7 4 3 2 3 1 2 3 5 5 5 4 5 5 5 5 4 6 6 8 9 9 9 9 9 9 9 8 10 7 7 7 6 6 7 8 8 7 7 6 7 7 7 8 8 7
14 15 15 7 6 1 2 4 4 3 1 3 4 3 1 2 3 4 5 5 5 6 7 8 8 9 8 8 8 8 8 8 8 9 6 6 7 8 7 7 6 6 7 8 9 9 8 9 8
Wind_Direction
284 270 289 254 244 253 137 151 106 136 142 75 99 122 30 14 3 54 134 123 134 121 119 123 89 103 100 104 95 80 82 81 86 87 82 80 76 75 74 73 79 81 77 75 71 69 68 67 67
305 308 238 276 261 223 140 126 169 153 108 142 120 142 173 87 70 127 129 139 136 123 120 125 105 113 104 97 85 91 93 88 90 84 88 85 79 77 79 75 79 82 78 71 69 68 67 65 64
289 296 276 292 267 262 120 171 145 108 136 157 125 324 46 82 102 145 119 142 135 125 116 117 114 116 110 101 84 78 81 97 92 92 90 95 90 77 67 66 70 75 74 72 70 66 63 61 60
259 296 199 254 242 302 355 172 125 140 135 188 352 135 103 14 147 124 142 143 138 128 119 125 115 117 113 109 104 92 87 86 93 97 94 89 73 81 73 70 76 73 73 72 70 65 64 63 62
228 206 216 254 241 267 180 317 170 176 155 171 196 130 86 119 104 130 148 149 140 133 125 136 122 121 117 116 114 110 103 98 109 104 97 92 77 79 78 74 74 76 75 74 71 70 67 66 61
225 275 223 208 211 181 191 191 193 188 157 136 196 149 110 135 138 149 154 149 149 132 138 134 124 115 115 106 116 120 110 92 90 112 101 100 87 84 78 71 67 67 75 74 72 70 67 63 58
250 228 245 250 211 198 195 171 198 187 180 185 39 187 98 165 137 166 162 150 149 141 141 140 142 131 115 107 93 118 99 87 77 103 101 83 78 77 71 72 75 76 78 78 76 73 69 64 57
257 252 243 234 218 224 144 176 202 197 179 90 210 183 170 166 142 171 167 151 157 153 152 152 147 159 153 144 96 94 101 95 83 87 95 97 91 98 109 106 77 77 78 77 75 75 74 73 64
269 234 230 229 223 197 141 192 205 103 154 197 175 314 58 136 147 164 166 166 164 168 151 159 157 158 149 142 124 111 101 108 113 115 129 160 127 118 106 70 87 88 83 77 73 72 78 105 98
210 232 235 199 254 223 169 218 165 193 193 199 182 123 138 146 161 165 172 184 175 175 167 169 169 160 154 147 159 153 143 159 136 146 171 132 114 92 93 98 97 98 103 104 105 111 236 245 61
198 233 246 194 176 298 207 208 204 213 199 215 203 170 159 162 174 177 180 184 186 179 169 178 199 167 171 157 169 159 171 152 152 149 153 144 125 149 165 146 165 157 205 151 167 137 65 57 30
202 237 250 174 159 165 206 215 206 231 208 59 224 162 166 176 184 186 187 189 191 185 176 182 181 182 183 169 184 168 167 167 168 165 164 163 166 157 148 148 143 173 168 138 127 101 77 82 74
220 200 218 183 176 201 161 221 232 224 242 140 197 153 178 185 190 194 192 197 194 191 182 178 185 179 186 206 180 186 173 184 179 171 178 184 170 165 162 155 174 159 172 178 167 137 83 92 27
201 196 209 194 197 200 222 222 189 235 224 203 186 181 186 192 193 193 194 191 205 200 190 181 201 179 185 191 193 213 195 186 182 181 178 204 183 172 171 172 173 175 196 178 203 213 219 230 190
190 189 199 197 198 218 223 234 224 234 221 204 197 192 193 196 194 199 198 197 199 213 194 191 194 195 188 204 186 200 205 196 192 193 183 185 196 187 191 187 180 175 181 196 202 208 224 244 217
183 208 206 213 205 199 211 250 229 218 196 208 207 199 191 197 203 201 198 202 190 208 201 202 194 201 190 207 195 203 200 198 196 199 190 192 192 194 201 196 199 178 180 202 217 226 240 245 254
190 194 211 210 212 196 214 249 244 189 211 217 209 206 193 196 207 206 201 198 196 198 202 194 205 201 196 205 202 207 202 208 211 202 198 195 196 199 202 203 202 175 192 202 218 237 251 262 249
177 215 201 211 192 211 216 238 244 201 219 222 212 209 204 203 202 198 204 201 194 201 199 202 198 199 197 194 205 207 195 214 217 210 204 199 197 196 201 204 202 185 186 203 221 242 244 298 290
190 203 200 210 151 200 227 236 236 224 215 220 223 210 213 214 201 193 198 197 198 199 201 202 197 198 193 193 192 203 202 214 209 217 213 201 202 201 203 202 195 195 201 203 203 226 232 228 224
199 200 210 165 162 223 241 242 239 240 211 218 218 216 218 212 200 199 195 195 197 201 204 203 202 198 195 192 193 194 202 214 213 209 209 211 203 204 204 195 197 194 192 201 201 187 184 237 174
192 198 209 220 175 232 281 262 245 237 240 226 226 227 219 217 209 201 197 198 200 206 201 204 205 200 199 199 192 196 203 209 206 211 209 215 210 204 199 204 194 195 200 200 199 193 205 206 182
189 211 209 159 192 232 205 276 221 217 217 220 227 219 221 220 216 209 200 207 207 209 210 206 206 206 204 197 198 202 208 198 207 209 209 204 214 206 201 211 208 202 202 209 204 194 200 197 220
165 164 171 186 221 290 198 252 246 219 219 214 218 220 219 222 213 212 205 200 210 201 204 206 206 206 205 202 204 202 211 215 210 212 207 208 205 212 205 204 211 212 204 214 211 189 205 197 207
129 135 134 166 220 246 230 217 254 223 220 237 229 220 221 218 218 212 205 201 204 204 197 198 205 208 204 202 207 213 208 215 209 207 205 206 203 202 200 206 213 211 216 203 206 204 201 203 197
170 167 160 202 208 238 48 227 248 244 257 240 251 235 222 223 225 217 198 192 197 196 197 201 204 208 200 204 211 214 216 215 218 207 199 201 209 204 205 198 201 206 200 166 170 184 198 199 186
191 191 179 190 197 198 80 228 239 252 258 249 248 252 298 301 251 244 218 208 203 204 199 201 205 205 204 199 208 213 216 222 217 213 201 212 215 211 204 199 198 187 166 170 161 178 183 166 166
194 216 159 106 28 206 198 242 253 264 238 222 239 222 231 239 223 212 196 209 220 205 207 204 202 205 204 199 204 213 214 214 217 219 219 217 220 201 178 181 192 185 168 167 175 165 152 149 133
211 157 184 223 182 214 185 259 254 196 265 223 222 224 233 228 222 209 193 197 200 211 201 196 198 202 199 204 203 210 217 220 219 210 213 204 181 147 162 162 193 173 155 142 145 126 122 121 120
172 188 209 190 211 209 173 202 28 348 19 333 332 330 297 248 213 210 200 180 173 175 184 185 180 181 180 188 194 197 209 215 209 207 207 202 153 175 188 170 179 156 146 143 134 135 142 129 121
200 196 196 189 177 189 71 273 129 142 16 319 317 357 58 75 140 162 165 162 165 177 181 182 184 176 183 182 184 196 201 202 212 217 201 147 186 195 184 157 152 150 151 151 143 142 142 140 136